Wind_Speed
43 45 46 46 46 46 45 45 44 43 42 40 38 37 36 35 34 34 34 34 34 34 34 34 33 33 33 33 34 35 36 38 39 40 40 41 42 43 43 44 43 42
41 41 44 45 47 47 47 46 46 45 43 41 39 38 37 36 34 33 32 32 33 34 33 32 32 32 32 32 33 33 35 36 38 38 39 39 40 41 42 42 42 41
40 40 41 43 45 46 47 47 47 46 44 42 42 41 40 38 35 33 33 33 34 33 33 33 33 32 32 32 33 33 34 35 35 36 36 37 38 40 41 40 39 39
37 39 41 41 42 43 44 46 46 45 44 44 43 42 41 39 37 36 35 35 34 34 33 33 32 33 33 33 33 33 34 34 34 34 35 36 37 38 39 38 37 37
33 35 37 39 40 40 41 43 43 43 43 43 43 42 42 40 38 38 37 36 35 34 34 33 32 33 33 33 34 34 34 34 34 34 36 37 37 38 38 36 35 35
30 32 34 36 37 38 40 41 40 41 41 42 42 42 42 41 40 39 39 38 36 34 34 33 33 33 33 33 34 34 34 35 35 35 37 38 37 38 37 36 35 34
30 30 32 34 35 37 38 39 39 40 40 40 41 41 42 41 40 40 39 38 36 35 34 34 33 33 33 33 32 33 33 35 35 36 37 37 37 37 36 36 35 34
30 30 31 33 34 36 37 36 37 39 39 39 40 39 40 40 40 39 39 38 37 36 34 34 34 33 32 32 32 32 33 34 35 36 37 36 35 35 35 34 33 32
30 30 31 32 34 35 35 35 36 37 37 38 38 37 38 39 38 38 38 37 37 36 35 34 34 34 33 32 32 32 33 34 35 35 35 34 34 34 33 30 28 28
29 29 29 31 32 34 35 34 34 35 36 36 36 36 37 38 37 37 37 37 37 36 35 35 35 34 33 33 33 33 33 33 33 33 34 34 34 32 30 28 28 30
27 27 28 28 29 31 32 32 33 34 34 35 35 35 36 36 36 36 36 37 37 36 36 36 35 34 34 33 33 33 33 33 33 33 33 33 32 31 30 30 30 30
24 25 26 27 27 27 28 29 30 31 33 34 34 35 35 35 36 36 36 37 38 37 37 36 35 34 34 33 33 34 33 33 33 32 32 33 32 32 31 30 29 30
22 23 24 25 26 26 27 28 28 30 31 32 33 34 34 35 36 37 38 38 38 37 37 36 35 34 34 34 35 35 34 34 33 33 33 33 32 31 31 30 30 31
23 22 22 24 25 27 28 29 29 30 31 32 32 33 34 35 36 37 37 38 38 37 37 36 35 35 35 36 36 35 34 34 34 34 35 33 31 31 32 31 30 31
24 22 22 23 24 26 28 29 31 31 32 33 34 34 35 35 36 37 37 38 38 38 37 36 36 36 36 36 36 35 34 33 31 31 32 32 31 32 33 32 32 32
24 22 21 22 24 25 26 28 30 31 32 33 34 35 36 36 37 37 38 38 38 38 37 37 37 37 37 37 35 34 33 32 31 30 30 32 32 32 33 33 33 33
26 23 21 22 23 24 25 26 28 30 32 33 34 34 35 36 37 38 39 39 39 39 38 38 38 38 37 35 34 32 31 31 32 32 32 34 34 34 34 34 33 32
28 26 22 22 23 24 25 26 27 28 30 32 33 34 34 36 37 38 39 39 39 39 39 39 39 38 36 35 33 32 30 30 32 34 35 35 34 33 33 33 32 31
31 29 26 23 23 24 25 26 26 28 29 30 31 32 33 35 35 36 37 37 38 39 39 39 38 36 35 34 33 31 30 32 35 36 36 36 35 34 34 33 33 32
33 32 29 26 24 24 25 26 27 28 28 28 29 30 30 32 32 33 34 35 36 37 37 37 37 36 34 33 30 30 31 35 37 37 36 36 35 35 35 34 34 34
34 34 33 30 28 26 25 26 28 29 28 27 27 27 27 27 28 29 30 31 33 34 34 35 34 33 32 32 32 34 35 37 38 37 35 35 34 34 35 34 33 33
34 35 35 34 32 29 26 26 28 30 29 26 25 24 24 24 25 25 26 27 28 30 31 32 31 31 31 32 34 35 36 37 37 36 35 35 36 35 34 33 32 31
33 35 36 37 37 34 28 27 30 31 30 27 25 24 22 22 23 23 24 25 25 27 28 28 28 29 30 31 32 32 32 33 35 36 36 36 36 35 34 34 33 32
30 32 35 37 39 38 33 30 32 33 32 30 27 25 23 22 23 24 24 24 25 25 26 26 26 26 27 28 29 29 30 30 31 34 35 35 35 35 35 35 35 33
30 31 32 34 37 39 38 35 35 35 35 34 31 28 26 26 26 27 27 26 26 26 25 25 25 25 25 26 27 28 29 30 31 31 33 35 35 36 35 35 35 34
32 32 32 32 33 36 39 40 40 39 38 37 36 33 31 30 30 30 29 29 28 27 27 27 27 26 27 28 29 29 30 32 33 34 35 36 37 37 37 37 36 35
Wind_Direction
251 249 248 249 250 251 253 254 255 255 254 253 254 255 255 254 253 253 253 254 253 252 252 253 252 251 250 249 249 249 248 249 250 250 251 251 250 251 251 252 253 253
253 252 250 249 250 250 251 252 252 253 254 254 255 256 257 256 255 254 254 253 253 252 252 252 251 249 248 248 248 247 247 247 248 248 249 249 249 250 250 250 251 251
254 254 253 252 252 252 253 253 253 253 254 254 254 254 256 256 256 256 255 253 253 252 250 250 249 248 247 247 247 247 247 247 247 248 249 248 248 248 249 249 249 249
256 256 257 256 256 256 256 256 256 255 255 255 254 254 255 256 257 257 256 254 253 252 251 249 248 247 247 246 246 246 246 247 248 248 248 248 247 247 247 247 247 247
262 259 258 258 258 258 258 258 258 257 256 255 254 254 255 256 257 257 257 256 254 253 252 250 248 247 247 247 247 246 246 247 248 247 248 248 248 247 246 246 246 245
266 262 259 257 256 257 258 258 258 257 256 255 254 255 256 256 256 257 257 257 256 255 254 252 250 249 248 248 247 246 246 247 247 246 247 248 248 247 246 245 244 244
266 265 261 257 255 255 255 256 257 257 255 255 254 254 255 256 256 256 257 258 258 257 255 254 253 251 250 249 248 247 246 246 246 245 245 246 247 248 247 245 243 243
265 265 264 260 257 256 256 255 255 255 254 254 253 252 254 255 256 256 257 258 258 257 256 255 254 253 251 251 250 249 247 246 245 244 245 246 247 248 248 247 245 244
265 265 265 263 260 259 258 256 254 254 254 254 253 252 253 254 255 256 257 258 258 257 256 255 254 253 251 251 251 251 250 249 247 246 246 246 247 247 247 246 246 248
266 266 266 265 263 262 261 259 256 254 253 253 253 252 253 254 255 256 257 258 257 256 254 253 253 252 252 251 250 250 250 249 249 247 246 246 246 246 245 244 246 250
267 266 266 267 267 266 264 262 259 256 254 253 253 253 254 255 256 256 256 256 255 255 254 253 253 252 252 251 250 249 248 248 248 246 245 245 245 244 243 242 244 244
268 267 267 269 269 268 267 264 261 259 258 256 255 255 255 255 255 255 254 254 254 253 253 253 253 252 251 249 249 248 247 247 246 245 244 243 241 241 240 239 241 244
269 270 270 270 270 269 267 265 262 260 259 258 257 256 255 255 254 254 253 252 252 252 252 252 251 250 249 247 246 245 244 244 243 242 244 243 238 236 236 236 239 244
269 270 271 271 270 269 267 265 263 261 259 258 256 255 254 254 253 253 253 252 251 251 250 249 247 246 246 245 244 243 242 242 242 241 241 239 235 235 237 239 242 245
267 268 270 272 271 270 268 266 264 262 260 258 256 255 253 252 252 251 251 251 250 249 248 247 246 245 244 244 243 242 241 242 245 244 238 233 234 238 241 243 245 245
264 266 271 275 276 275 273 271 268 266 263 260 259 257 255 253 251 250 250 250 249 248 247 246 245 245 245 244 243 242 241 241 244 242 235 231 237 241 240 239 240 240
261 263 271 278 281 280 279 278 275 271 268 265 262 260 258 255 253 251 250 250 249 248 247 246 245 246 245 245 244 244 241 237 236 237 236 237 242 244 242 238 236 237
263 262 267 277 281 282 283 282 279 276 274 271 267 264 260 257 255 253 252 251 250 249 248 247 246 246 246 245 242 240 237 234 235 239 241 242 242 243 242 238 235 236
266 263 264 270 277 280 281 281 281 280 278 276 271 267 262 259 258 256 255 253 251 250 249 249 248 247 246 245 241 237 238 240 242 243 243 243 242 241 240 237 234 234
271 268 265 266 269 274 277 280 282 281 280 278 274 270 265 262 260 258 256 254 252 251 250 249 249 247 245 243 240 238 239 242 243 242 243 243 242 239 238 237 235 235
279 275 271 267 266 269 274 278 281 280 277 276 274 272 270 267 263 259 257 254 252 251 251 249 249 247 243 240 237 236 237 239 240 240 240 240 238 237 237 237 237 238
289 285 280 274 269 267 271 279 281 278 273 271 271 272 272 270 267 263 259 255 252 250 249 248 247 245 242 240 237 236 235 235 234 233 233 235 235 235 235 235 236 239
291 290 288 283 275 268 268 279 282 276 269 265 264 265 269 271 271 267 261 256 252 249 248 248 245 242 240 237 234 232 230 229 227 227 230 232 232 233 235 236 236 237
284 283 285 285 280 272 267 274 281 276 267 261 260 260 263 268 269 267 263 258 254 251 249 247 244 240 237 233 231 229 228 228 227 227 229 230 230 233 236 237 236 235
281 277 275 277 279 275 269 269 276 276 267 260 259 258 258 261 262 262 262 260 257 254 251 249 247 243 238 236 234 230 227 227 228 229 229 229 230 231 233 233 233 234
282 280 275 271 271 273 270 267 269 272 267 260 257 257 256 256 256 256 258 258 257 256 254 252 250 246 241 239 237 235 230 227 227 227 228 228 229 230 232 233 233 234
Height
1478 1479 1480 1481 1482 1483 1484 1485 1486 1486 1488 1489 1490 1491 1492 1493 1495 1496 1497 1498 1499 1499 1500 1500 1501 1502 1502 1503 1503 1503 1503 1503 1503 1504 1504 1505 1506 1507 1507 1508 1509 1510
1473 1474 1475 1476 1477 1478 1479 1480 1481 1481 1483 1485 1486 1487 1487 1488 1489 1491 1492 1493 1494 1494 1495 1495 1496 1496 1497 1498 1498 1498 1498 1498 1498 1499 1499 1500 1501 1501 1501 1502 1503 1504
1470 1470 1470 1471 1472 1473 1474 1475 1476 1477 1479 1480 1481 1482 1482 1483 1485 1486 1487 1488 1488 1489 1490 1490 1491 1491 1492 1493 1493 1493 1493 1493 1493 1494 1495 1495 1496 1495 1496 1497 1498 1498
1466 1466 1466 1467 1468 1469 1470 1470 1471 1473 1474 1475 1475 1477 1478 1478 1480 1481 1482 1483 1483 1484 1484 1485 1486 1487 1487 1488 1488 1488 1488 1488 1489 1490 1490 1490 1490 1490 1491 1492 1492 1493
1462 1463 1463 1463 1464 1465 1465 1465 1466 1468 1469 1469 1470 1471 1472 1474 1475 1476 1476 1477 1478 1479 1479 1480 1481 1482 1482 1483 1483 1483 1484 1484 1484 1485 1484 1484 1485 1485 1486 1487 1487 1488
1458 1458 1458 1459 1459 1460 1460 1460 1461 1462 1463 1464 1466 1466 1467 1469 1470 1470 1471 1472 1473 1474 1474 1475 1476 1477 1477 1478 1478 1478 1479 1479 1479 1480 1479 1479 1480 1481 1481 1482 1483 1484
1454 1454 1454 1454 1455 1455 1455 1456 1457 1457 1458 1459 1460 1462 1463 1463 1464 1465 1466 1467 1468 1469 1469 1470 1471 1472 1472 1472 1472 1473 1473 1474 1474 1475 1474 1475 1476 1476 1477 1478 1478 1479
1450 1450 1450 1450 1450 1450 1450 1451 1452 1452 1453 1455 1455 1457 1458 1458 1459 1461 1462 1462 1463 1464 1465 1465 1466 1466 1467 1467 1467 1467 1468 1468 1469 1469 1470 1470 1471 1471 1472 1473 1474 1475
1447 1446 1446 1446 1446 1446 1446 1447 1448 1448 1449 1450 1451 1452 1453 1454 1455 1456 1457 1458 1458 1459 1460 1460 1460 1461 1462 1462 1462 1462 1463 1463 1464 1465 1465 1466 1467 1467 1468 1470 1470 1471
1443 1443 1443 1442 1442 1442 1442 1443 1444 1445 1445 1446 1447 1448 1448 1449 1451 1452 1453 1453 1453 1454 1454 1455 1455 1456 1457 1457 1457 1458 1458 1459 1460 1460 1461 1462 1463 1464 1465 1466 1467 1468
1440 1439 1439 1439 1439 1439 1439 1440 1441 1441 1441 1442 1443 1444 1444 1445 1446 1447 1448 1447 1448 1449 1449 1450 1450 1451 1452 1452 1453 1454 1454 1455 1456 1456 1457 1458 1459 1460 1462 1463 1463 1464
1437 1436 1436 1436 1436 1436 1436 1437 1437 1437 1437 1438 1439 1439 1440 1441 1441 1442 1442 1442 1443 1444 1444 1445 1446 1446 1447 1448 1449 1449 1450 1451 1452 1452 1453 1454 1455 1457 1458 1459 1460 1460
1434 1434 1433 1433 1433 1433 1433 1433 1433 1433 1433 1434 1434 1435 1435 1436 1436 1436 1437 1437 1438 1438 1439 1440 1441 1442 1442 1443 1444 1445 1446 1447 1448 1449 1450 1450 1451 1452 1454 1455 1456 1457
1431 1431 1431 1431 1430 1430 1430 1430 1429 1429 1429 1429 1430 1430 1430 1431 1431 1431 1432 1432 1433 1433 1434 1435 1436 1436 1437 1438 1439 1440 1441 1442 1443 1444 1445 1446 1447 1449 1450 1451 1452 1453
1428 1428 1428 1428 1427 1427 1427 1426 1426 1426 1425 1425 1425 1425 1426 1426 1426 1427 1427 1427 1428 1429 1429 1430 1431 1431 1432 1433 1435 1436 1437 1438 1439 1440 1441 1442 1443 1445 1446 1447 1448 1449
1425 1425 1425 1424 1424 1424 1424 1423 1423 1422 1422 1422 1421 1421 1422 1422 1422 1422 1422 1423 1423 1424 1425 1426 1426 1427 1428 1430 1431 1433 1434 1435 1436 1437 1437 1438 1440 1441 1442 1443 1443 1445
1422 1421 1421 1421 1421 1421 1421 1420 1420 1419 1419 1418 1418 1418 1418 1418 1418 1418 1418 1419 1419 1420 1420 1421 1422 1423 1424 1426 1428 1429 1430 1431 1432 1433 1434 1435 1436 1436 1437 1438 1439 1441
1419 1418 1417 1418 1418 1417 1417 1417 1416 1416 1415 1415 1414 1414 1414 1414 1414 1414 1414 1415 1416 1416 1416 1417 1418 1419 1421 1423 1424 1426 1427 1428 1429 1430 1430 1431 1431 1432 1433 1434 1435 1437
1415 1414 1414 1414 1414 1414 1414 1413 1413 1412 1412 1411 1411 1410 1410 1409 1410 1410 1410 1411 1411 1411 1412 1413 1414 1416 1417 1419 1420 1422 1423 1424 1425 1425 1426 1427 1428 1429 1430 1430 1431 1433
1411 1410 1410 1410 1410 1410 1410 1409 1409 1409 1408 1408 1407 1406 1406 1405 1406 1406 1406 1406 1407 1407 1408 1409 1410 1411 1413 1414 1416 1417 1419 1420 1420 1421 1422 1423 1424 1425 1426 1427 1428 1429
1408 1407 1407 1406 1406 1406 1405 1406 1406 1405 1405 1404 1404 1403 1402 1402 1402 1402 1402 1402 1402 1403 1403 1404 1405 1406 1408 1409 1411 1412 1414 1415 1415 1416 1417 1418 1420 1421 1422 1424 1425 1425
1405 1404 1403 1403 1402 1402 1401 1402 1402 1402 1402 1401 1400 1400 1399 1399 1398 1398 1398 1398 1398 1399 1399 1399 1400 1401 1403 1404 1405 1407 1408 1409 1409 1411 1412 1413 1415 1417 1418 1420 1421 1422
1401 1400 1399 1398 1398 1398 1398 1398 1398 1398 1398 1397 1396 1396 1395 1395 1395 1394 1394 1394 1394 1395 1395 1395 1396 1397 1398 1399 1401 1402 1403 1403 1404 1406 1407 1409 1410 1412 1414 1415 1417 1418
1396 1395 1394 1394 1393 1394 1394 1394 1394 1395 1394 1393 1392 1392 1392 1392 1391 1391 1391 1391 1391 1391 1391 1392 1393 1394 1395 1396 1397 1398 1399 1400 1401 1402 1403 1404 1406 1408 1409 1410 1412 1414
1390 1390 1389 1389 1388 1389 1391 1391 1390 1391 1391 1390 1389 1388 1388 1388 1387 1387 1387 1387 1387 1387 1388 1388 1389 1390 1391 1392 1393 1395 1396 1397 1398 1399 1399 1401 1402 1403 1404 1406 1407 1408
1384 1384 1384 1384 1384 1384 1385 1386 1386 1386 1387 1386 1385 1384 1383 1383 1383 1383 1383 1384 1384 1384 1384 1385 1385 1387 1388 1389 1390 1391 1393 1394 1395 1396 1396 1397 1398 1399 1400 1401 1402 1403